FW4235 Weather Reports


Display with metric or nautical units.
time (UTC)temp
F
wind
direction
speed
MPH
gust
MPH
rain 1hr
in
rain 24hr
in
rain mn
in
humidity
%
barometer
mb
20260507113507 75 196 0.0 0.0 0.00 0.00 0.00 37 1016.3
20260507113007 75 186 0.0 0.0 0.00 0.00 0.00 39 1016.3
20260507112507 75 197 0.0 0.0 0.00 0.00 0.00 40 1016.2
20260507112007 76 184 0.0 0.0 0.00 0.00 0.00 37 1016.3
20260507111507 76 180 0.0 0.0 0.00 0.00 0.00 36 1016.5
20260507110507 76 190 0.0 0.0 0.00 0.00 0.00 35 1016.3
20260507110007 76 183 0.0 0.0 0.00 0.00 0.00 32 1016.2
20260507105507 76 167 0.0 0.0 0.00 0.00 0.00 34 1016.2
20260507105007 76 173 0.0 0.0 0.00 0.00 0.00 32 1016.3
20260507104507 76 211 0.0 0.0 0.00 0.00 0.00 32 1016.3
20260507104007 77 207 0.0 0.0 0.00 0.00 0.00 32 1016.2
20260507103507 76 195 0.0 0.0 0.00 0.00 0.00 33 1016.2
20260507103007 76 187 0.0 0.0 0.00 0.00 0.00 36 1016.1
20260507102506 77 190 0.0 0.0 0.00 0.00 0.00 34 1015.9
20260507102007 77 196 0.0 0.0 0.00 0.00 0.00 29 1015.9
20260507101507 77 206 0.0 0.0 0.00 0.00 0.00 34 1015.9
20260507101007 77 173 0.0 0.0 0.00 0.00 0.00 33 1015.9
20260507100506 77 172 0.0 0.0 0.00 0.00 0.00 30 1016.0
20260507100007 77 193 0.0 0.0 0.00 0.00 0.00 29 1016.0
20260507095506 77 159 0.0 0.0 0.00 0.00 0.00 29 1016.1
20260507095007 77 204 0.0 0.0 0.00 0.00 0.00 30 1016.1
20260507094506 77 206 0.0 0.0 0.00 0.00 0.00 33 1016.0
20260507094007 77 256 0.0 0.0 0.00 0.00 0.00 31 1015.9
20260507093507 77 215 0.0 0.0 0.00 0.00 0.00 29 1016.0
20260507093007 77 204 0.0 0.0 0.00 0.00 0.00 30 1016.0
20260507092506 76 159 0.0 0.0 0.00 0.00 0.00 32 1016.0
20260507092007 76 214 0.0 0.0 0.00 0.00 0.00 33 1016.0
20260507091507 76 186 0.0 0.0 0.00 0.00 0.00 36 1016.1
20260507091007 77 198 0.0 0.0 0.00 0.00 0.00 36 1016.1
20260507090507 76 165 0.0 0.0 0.00 0.00 0.00 37 1016.0
20260507090007 76 167 0.0 0.0 0.00 0.00 0.00 38 1015.9
20260507085506 76 206 0.0 0.0 0.00 0.00 0.00 41 1015.8
20260507085007 76 202 0.0 0.0 0.00 0.00 0.00 42 1015.7
20260507084506 75 96 0.0 0.0 0.00 0.00 0.00 42 1015.8
20260507084007 74 166 0.0 0.0 0.00 0.00 0.00 43 1016.0
20260507083507 75 218 0.0 0.0 0.00 0.00 0.00 45 1016.0
20260507083007 74 271 0.0 0.0 0.00 0.00 0.00 45 1015.9
20260507082507 73 237 0.0 0.0 0.00 0.00 0.00 45 1015.9
20260507082007 74 220 0.0 0.0 0.00 0.00 0.00 45 1015.9
20260507081506 73 212 0.0 0.0 0.00 0.00 0.00 46 1015.8
20260507081006 73 181 0.0 0.0 0.00 0.00 0.00 46 1015.8
20260507080506 74 245 0.0 0.0 0.00 0.00 0.00 46 1015.9
20260507075507 74 329 0.0 0.0 0.00 0.00 0.00 47 1015.9
20260507075007 74 253 0.0 0.0 0.00 0.00 0.00 48 1015.9
20260507074507 73 161 0.0 0.0 0.00 0.00 0.00 47 1015.8
20260507074007 74 235 0.0 0.0 0.00 0.00 0.00 48 1015.7
20260507073507 73 157 0.0 0.0 0.00 0.00 0.00 49 1015.7
20260507073007 73 150 0.0 0.0 0.00 0.00 0.00 49 1015.5
20260507072507 72 155 0.0 0.0 0.00 0.00 0.00 48 1015.5
20260507071506 73 165 0.0 0.0 0.00 0.00 0.00 48 1015.6
20260507070011 71 166 0.0 0.0 0.00 0.00 0.00 50 1015.7
20260507065507 71 191 0.0 0.0 0.00 0.00 0.00 50 1015.8
20260507065007 71 212 0.0 0.0 0.00 0.00 0.00 50 1015.8
20260507064507 70 164 0.0 0.0 0.00 0.00 0.00 50 1015.8
20260507064007 70 212 0.0 0.0 0.00 0.00 0.00 49 1015.8
20260507063507 70 245 0.0 0.0 0.00 0.00 0.00 51 1015.7
20260507063007 69 243 0.0 0.0 0.00 0.00 0.00 50 1015.7
20260507062506 68 275 0.0 0.0 0.00 0.00 0.00 51 1015.7
20260507062007 68 267 0.0 0.0 0.00 0.00 0.00 52 1015.7
20260507061507 68 238 0.0 0.0 0.00 0.00 0.00 52 1015.6
20260507061007 68 233 0.0 0.0 0.00 0.00 0.00 52 1015.5
20260507060507 68 245 0.0 0.0 0.00 0.00 0.00 52 1015.5
20260507060006 68 248 0.0 0.0 0.00 0.00 0.00 52 1015.4
20260507055007 68 250 0.0 0.0 0.00 0.00 0.00 55 1015.3
20260507054507 67 142 0.0 0.0 0.00 0.00 0.00 55 1015.3
20260507054007 67 106 0.0 0.0 0.00 0.00 0.00 56 1015.2
20260507053507 66 106 0.0 0.0 0.00 0.00 0.00 58 1015.1
20260507053007 66 106 0.0 0.0 0.00 0.00 0.00 58 1015.1
20260507052507 65 76 0.0 0.0 0.00 0.00 0.00 61 1015.0
20260507052007 65 76 0.0 0.0 0.00 0.00 0.00 62 1014.9
20260507051007 64 79 0.0 0.0 0.00 0.00 0.00 67 1015.0
20260507050507 64 65 0.0 0.0 0.00 0.00 0.00 69 1014.9
20260507050007 64 67 0.0 0.0 0.00 0.00 0.00 70 1015.0
20260507045507 63 67 0.0 0.0 0.00 0.00 0.00 70 1015.0
20260507045007 63 53 0.0 0.0 0.00 0.00 0.00 70 1015.0
20260507044506 63 52 0.0 0.0 0.00 0.00 0.00 69 1015.0
20260507044007 62 52 0.0 0.0 0.00 0.00 0.00 68 1015.0
20260507043507 62 40 0.0 0.0 0.00 0.00 0.00 67 1015.0
20260507042507 60 39 0.0 0.0 0.00 0.00 0.00 65 1014.9
20260507041506 59 25 0.0 0.0 0.00 0.00 0.00 64 1014.9
20260507041007 59 46 0.0 0.0 0.00 0.00 0.00 64 1015.0
20260507040507 59 46 0.0 0.0 0.00 0.00 0.00 63 1015.1
20260507040007 59 46 0.0 0.0 0.00 0.00 0.00 64 1015.0
20260507035506 59 46 0.0 0.0 0.00 0.00 0.00 64 1015.0
20260507035007 59 46 0.0 0.0 0.00 0.00 0.00 63 1015.0
20260507034506 59 46 0.0 0.0 0.00 0.00 0.00 63 1015.0
20260507034006 59 46 0.0 0.0 0.00 0.00 0.00 63 1015.0
20260507033507 59 46 0.0 0.0 0.00 0.00 0.00 62 1014.9
20260507032507 59 46 0.0 0.0 0.00 0.00 0.00 61 1014.8
20260507032007 59 46 0.0 0.0 0.00 0.00 0.00 61 1014.8
20260507031506 59 39 0.0 0.0 0.00 0.00 0.00 61 1014.8
20260507031007 59 19 0.0 0.0 0.00 0.00 0.00 60 1014.8
20260507030506 59 18 0.0 0.0 0.00 0.00 0.00 60 1014.8
20260507030006 60 5 0.0 0.0 0.00 0.00 0.00 59 1014.7
20260507025507 60 5 0.0 0.0 0.00 0.00 0.00 59 1014.7
20260507025007 60 5 0.0 0.0 0.00 0.00 0.00 60 1014.7
20260507024507 59 5 0.0 0.0 0.00 0.00 0.00 60 1014.7
20260507024007 59 5 0.0 0.0 0.00 0.00 0.00 60 1014.6
20260507023507 59 5 0.0 0.0 0.00 0.00 0.00 61 1014.7
20260507022506 59 0 0.0 0.0 0.00 0.00 0.00 60 1014.6
20260507022007 59 355 0.0 0.0 0.00 0.00 0.00 60 1014.6
20260507021506 60 355 0.0 0.0 0.00 0.00 0.00 59 1014.6
20260507021007 60 257 0.0 0.0 0.00 0.00 0.00 59 1014.6
20260507020007 60 257 0.0 0.0 0.00 0.00 0.00 58 1014.5
20260507015506 60 257 0.0 0.0 0.00 0.00 0.00 58 1014.4
20260507015007 61 256 0.0 0.0 0.00 0.00 0.00 58 1014.3
20260507014506 61 257 0.0 0.0 0.00 0.00 0.00 58 1014.3
20260507014007 61 257 0.0 0.0 0.00 0.00 0.00 58 1014.4
20260507013506 61 260 0.0 0.0 0.00 0.00 0.00 58 1014.3
20260507013006 61 262 0.0 0.0 0.00 0.00 0.00 58 1014.3
20260507012507 61 258 0.0 0.0 0.00 0.00 0.00 58 1014.3
20260507012007 61 265 0.0 0.0 0.00 0.00 0.00 58 1014.2
20260507011507 60 266 0.0 0.0 0.00 0.00 0.00 58 1014.1
20260507011007 60 250 0.0 0.0 0.00 0.00 0.00 57 1013.9
20260507010507 60 296 0.0 0.0 0.00 0.00 0.00 57 1013.9
20260507010007 60 296 0.0 0.0 0.00 0.00 0.00 57 1013.9
20260507005506 60 296 0.0 0.0 0.00 0.00 0.00 57 1013.8
20260507005007 60 296 0.0 0.0 0.00 0.00 0.00 57 1013.9
20260507004507 60 296 0.0 0.0 0.00 0.00 0.00 57 1013.9
20260507004007 61 296 0.0 0.0 0.00 0.00 0.00 56 1013.9
20260507003007 61 296 0.0 0.0 0.00 0.00 0.00 56 1013.8
20260507002507 61 296 0.0 0.0 0.00 0.00 0.00 55 1013.8
20260507002007 62 296 0.0 0.0 0.00 0.00 0.00 55 1013.8
20260507001507 62 296 0.0 0.0 0.00 0.00 0.00 55 1013.9
20260507000507 61 296 0.0 0.0 0.00 0.00 0.00 55 1013.9
20260506235507 61 296 0.0 0.0 0.00 0.00 0.00 56 1014.0
20260506235007 61 296 0.0 0.0 0.00 0.00 0.00 56 1014.1
20260506234506 61 296 0.0 0.0 0.00 0.00 0.00 56 1014.2
20260506234006 61 296 0.0 0.0 0.00 0.00 0.00 56 1014.3
20260506233506 62 296 0.0 0.0 0.00 0.00 0.00 55 1014.4
20260506233007 62 296 0.0 0.0 0.00 0.00 0.00 55 1014.5
20260506232506 62 293 0.0 0.0 0.00 0.00 0.00 54 1014.5
20260506232006 62 292 0.0 0.0 0.00 0.00 0.00 54 1014.5
20260506231506 62 292 0.0 0.0 0.00 0.00 0.00 54 1014.6
20260506231007 62 293 0.0 0.0 0.00 0.00 0.00 54 1014.6
20260506230007 63 319 0.0 0.0 0.00 0.00 0.00 54 1014.6
20260506225506 63 319 0.0 0.0 0.00 0.00 0.00 53 1014.6
20260506224507 64 319 0.0 0.0 0.00 0.00 0.00 52 1014.7
20260506224007 64 319 0.0 0.0 0.00 0.00 0.00 52 1014.7
20260506223507 64 319 0.0 0.0 0.00 0.00 0.00 52 1014.7
20260506223006 64 319 0.0 0.0 0.00 0.00 0.00 52 1014.6
20260506222507 64 319 0.0 0.0 0.00 0.00 0.00 52 1014.6
20260506222007 64 319 0.0 0.0 0.00 0.00 0.00 51 1014.7
20260506221506 64 319 0.0 0.0 0.00 0.00 0.00 51 1014.8
20260506220506 64 319 0.0 0.0 0.00 0.00 0.00 51 1014.9
20260506220007 64 319 0.0 0.0 0.00 0.00 0.00 51 1014.8
20260506215509 64 290 0.0 0.0 0.00 0.00 0.00 51 1014.8
20260506214507 64 287 0.0 0.0 0.00 0.00 0.00 50 1014.8
20260506213007 64 284 0.0 0.0 0.00 0.00 0.00 49 1015.0
20260506212007 64 284 0.0 0.0 0.00 0.00 0.00 48 1015.1
20260506211507 64 284 0.0 0.0 0.00 0.00 0.00 48 1015.1
20260506211007 64 284 0.0 0.0 0.00 0.00 0.00 48 1015.1
20260506210508 64 284 0.0 0.0 0.00 0.00 0.00 48 1015.1
20260506210006 64 284 0.0 0.0 0.00 0.00 0.00 47 1015.2
20260506205507 64 284 0.0 0.0 0.00 0.00 0.00 47 1015.2
20260506205007 65 284 0.0 0.0 0.00 0.00 0.00 47 1015.2
20260506204506 65 284 0.0 0.0 0.00 0.00 0.00 47 1015.3
20260506204007 65 284 0.0 0.0 0.00 0.00 0.00 47 1015.3
20260506203507 65 284 0.0 0.0 0.00 0.00 0.00 47 1015.3
20260506202506 65 284 0.0 0.0 0.00 0.00 0.00 47 1015.4
20260506202006 65 284 0.0 0.0 0.00 0.00 0.00 47 1015.3
20260506201506 65 281 0.0 0.0 0.00 0.00 0.00 46 1015.3
20260506201006 65 281 0.0 0.0 0.00 0.00 0.00 46 1015.2
20260506200506 66 281 0.0 0.0 0.00 0.00 0.00 46 1015.1
20260506200007 66 281 0.0 0.0 0.00 0.00 0.00 45 1015.1
20260506195506 66 287 0.0 0.0 0.00 0.00 0.00 44 1015.1
20260506195007 66 286 0.0 0.0 0.00 0.00 0.00 45 1015.1
20260506194506 66 289 0.0 0.0 0.00 0.00 0.00 44 1015.0
20260506194007 67 293 0.0 0.0 0.00 0.00 0.00 44 1015.0
20260506193506 67 286 0.0 0.0 0.00 0.00 0.00 44 1015.0
20260506193007 67 302 0.0 0.0 0.00 0.00 0.00 43 1014.9
20260506192507 67 302 0.0 0.0 0.00 0.00 0.00 43 1014.9
20260506192007 67 303 0.0 0.0 0.00 0.00 0.00 43 1014.8
20260506191506 67 309 0.0 0.0 0.00 0.00 0.00 43 1014.8
20260506185006 67 277 0.0 0.0 0.00 0.00 0.00 44 1014.5
20260506184506 67 277 0.0 0.0 0.00 0.00 0.00 44 1014.5
20260506183507 66 277 0.0 0.0 0.00 0.00 0.00 45 1014.4
20260506182509 66 247 0.0 0.0 0.00 0.00 0.00 47 1014.3
20260506182006 66 247 0.0 0.0 0.00 0.00 0.00 47 1014.3
20260506181507 66 245 0.0 0.0 0.00 0.00 0.00 48 1014.2
20260506181007 66 245 0.0 0.0 0.00 0.00 0.00 47 1014.2
20260506180507 67 244 0.0 0.0 0.00 0.00 0.00 48 1014.1
20260506180006 67 242 0.0 0.0 0.00 0.00 0.00 47 1014.2
20260506175507 67 242 0.0 0.0 0.00 0.00 0.00 46 1014.1
20260506175006 67 241 0.0 0.0 0.00 0.00 0.00 44 1014.2
20260506174507 68 241 0.0 0.0 0.00 0.00 0.00 43 1014.1
20260506174007 68 241 0.0 0.0 0.00 0.00 0.00 43 1014.0
20260506173507 68 241 0.0 0.0 0.00 0.00 0.00 43 1013.9
20260506173006 68 241 0.0 0.0 0.00 0.00 0.00 43 1013.9
20260506172507 68 241 0.0 0.0 0.00 0.00 0.00 42 1013.9
20260506172007 69 256 0.0 0.0 0.00 0.00 0.00 42 1013.8
20260506171506 69 240 0.0 0.0 0.00 0.00 0.00 42 1013.8
20260506171007 69 232 0.0 0.0 0.00 0.00 0.00 42 1013.8
20260506170506 69 232 0.0 0.0 0.00 0.00 0.00 42 1013.7
20260506170006 69 232 0.0 0.0 0.00 0.00 0.00 42 1013.8
20260506165506 70 232 0.0 0.0 0.00 0.00 0.00 41 1013.7
20260506164007 70 223 0.0 0.0 0.00 0.00 0.00 40 1013.7
20260506163507 70 238 0.0 0.0 0.00 0.00 0.00 40 1013.7
20260506163006 71 223 0.0 0.0 0.00 0.00 0.00 39 1013.7
20260506162507 71 227 0.0 0.0 0.00 0.00 0.00 39 1013.7
20260506161007 71 238 0.0 0.0 0.00 0.00 0.00 38 1013.6
20260506160506 71 194 0.0 0.0 0.00 0.00 0.00 39 1013.6
20260506155506 71 190 0.0 0.0 0.00 0.00 0.00 39 1013.6
20260506155006 71 217 0.0 0.0 0.00 0.00 0.00 39 1013.6
20260506154506 72 167 0.0 0.0 0.00 0.00 0.00 39 1013.6
20260506154006 72 212 0.0 0.0 0.00 0.00 0.00 39 1013.6
20260506153007 72 200 0.0 0.0 0.00 0.00 0.00 39 1013.7
20260506152507 73 191 0.0 0.0 0.00 0.00 0.00 39 1013.8
20260506152007 73 198 0.0 0.0 0.00 0.00 0.00 38 1013.8
20260506151506 73 199 0.0 0.0 0.00 0.00 0.00 38 1013.7
20260506151007 73 166 0.0 0.0 0.00 0.00 0.00 37 1013.7
20260506150007 74 205 0.0 0.0 0.00 0.00 0.00 37 1013.7
20260506145006 74 172 0.0 0.0 0.00 0.00 0.00 38 1013.8
20260506144506 74 192 0.0 0.0 0.00 0.00 0.00 38 1013.8
20260506144007 74 174 0.0 0.0 0.00 0.00 0.00 39 1013.7
20260506142507 75 178 0.0 0.0 0.00 0.00 0.00 41 1013.7
20260506142006 74 185 0.0 0.0 0.00 0.00 0.00 41 1013.7
20260506141006 74 200 0.0 0.0 0.00 0.00 0.00 39 1013.7
20260506140506 74 169 0.0 0.0 0.00 0.00 0.00 40 1013.7
20260506140006 75 176 0.0 0.0 0.00 0.00 0.00 39 1013.7
20260506135006 75 185 0.0 0.0 0.00 0.00 0.00 39 1013.7
20260506134006 76 165 0.0 0.0 0.00 0.00 0.00 38 1013.8
20260506133507 76 165 0.0 0.0 0.00 0.00 0.00 38 1013.8
20260506133006 76 186 0.0 0.0 0.00 0.00 0.00 38 1013.8
20260506132507 76 175 0.0 0.0 0.00 0.00 0.00 37 1013.8
20260506132007 76 173 0.0 0.0 0.00 0.00 0.00 38 1013.8
20260506131506 76 194 0.0 0.0 0.00 0.00 0.00 38 1013.8
20260506130507 76 201 0.0 0.0 0.00 0.00 0.00 38 1013.8
20260506130006 75 181 0.0 0.0 0.00 0.00 0.00 38 1013.8
20260506125506 75 176 0.0 0.0 0.00 0.00 0.00 39 1013.8
20260506123506 77 186 0.0 0.0 0.00 0.00 0.00 39 1013.9
20260506123007 77 178 0.0 0.0 0.00 0.00 0.00 40 1013.9
20260506122506 78 182 0.0 0.0 0.00 0.00 0.00 39 1013.9
20260506122006 78 199 0.0 0.0 0.00 0.00 0.00 39 1013.9
20260506121506 77 214 0.0 0.0 0.00 0.00 0.00 35 1013.9
20260506120506 77 219 0.0 0.0 0.00 0.00 0.00 36 1014.1
20260506115006 78 226 0.0 0.0 0.00 0.00 0.00 35 1014.1
20260506114507 77 243 0.0 0.0 0.00 0.00 0.00 35 1014.2